{"data":{"norad_id":44779,"intl_designator":"2019-076A","name":"NINGXIA-1 1","alt_names":[],"object_type":"PAYLOAD","status":"ACTIVE","operator":null,"country":"PRC","launch_date":"2019-11-13","launch_site_code":"TAISC","launch_vehicle":null,"mission":null,"orbit_class":"UNKNOWN","rcs_meters":null,"size_class":null,"mass_kg":null,"dimensions":null,"purposes":[],"wikipedia_slug":null,"has_3d_model":false,"image_url":null,"decayed_at":null,"tle_current":{"epoch":"2026-05-25T03:57:59.501664Z","epoch_age_seconds":71162,"freshness":"FRESH","line1":"1 44779U 19076A   26145.16527201 -.00000091  00000+0  25209-4 0  9998","line2":"2 44779  45.0062 282.7325 0010418  47.3082 312.8628 14.02036262334621","mean_motion":14.02036262,"eccentricity":0.0010418,"inclination_deg":45.0062,"raan_deg":282.7325,"arg_perigee_deg":47.3082,"mean_anomaly_deg":312.8628,"bstar":2.5209e-5,"rev_number":33462,"period_min":102.70775721206,"perigee_km":879.18389570722,"apogee_km":894.32101938096,"semimajor_km":7264.8894575441,"source":"CELESTRAK","updated_at":"2026-05-25T13:37:56.010575Z"}}}